Wind_Speed
21 20 20 19 19 19 18 17 17 16 17 17 18 18 17 16 15 15 14 13 12 11 11 11 10 10 10 10 9 9 9 9 9 9 8 8 9 8 8 8 8 7 8 8
23 22 22 22 21 21 20 20 19 19 19 19 18 18 18 17 17 15 15 15 14 13 13 13 12 12 11 11 11 10 10 10 10 10 10 9 9 9 9 9 8 8 8 8
24 23 24 24 22 22 21 21 21 21 20 19 19 18 18 18 18 17 16 16 15 15 14 14 14 13 12 12 12 12 11 11 11 11 11 10 10 10 9 9 9 9 9 10
25 25 25 23 23 23 23 22 22 21 21 20 20 19 19 19 19 18 18 17 17 16 15 15 15 14 14 13 13 13 13 12 12 12 11 11 11 11 11 11 10 11 11 11
26 26 26 24 23 24 24 24 23 23 22 21 21 21 21 20 20 19 19 18 17 16 16 16 16 15 15 14 14 14 14 13 13 13 13 13 12 12 12 12 12 12 12 12
27 27 27 26 25 25 25 25 25 24 23 23 23 23 21 21 20 20 19 19 18 17 17 17 17 17 17 16 15 15 15 15 15 15 14 14 14 14 14 14 13 14 14 15
28 28 28 26 26 25 25 26 25 25 25 24 24 23 22 21 21 21 20 20 20 19 19 19 19 19 18 17 17 17 17 17 16 16 15 15 15 15 15 15 15 15 16 16
28 29 30 28 27 27 27 27 27 26 26 26 25 24 23 22 22 22 22 22 21 21 21 21 20 20 19 19 18 18 18 17 17 17 16 16 16 16 16 16 16 16 16 16
30 31 30 29 29 28 28 29 28 28 28 27 26 25 25 25 24 24 24 23 23 23 22 22 22 22 21 21 20 20 19 19 19 18 18 18 18 18 18 17 18 18 18 18
32 32 30 30 31 30 30 30 30 30 29 28 27 27 26 26 26 26 26 25 25 25 24 23 23 23 23 23 22 22 21 21 21 20 20 20 20 20 20 20 20 20 20 20
34 32 32 32 32 32 32 32 31 31 30 30 30 29 28 27 27 27 27 27 27 26 26 25 25 24 24 24 23 23 23 23 22 22 22 21 22 21 21 22 22 22 22 22
34 33 33 33 32 32 32 32 31 31 31 31 31 30 30 29 29 28 28 28 28 28 27 27 26 26 25 25 25 25 24 24 24 24 24 24 24 24 24 23 23 23 23 24
34 33 33 33 33 33 33 32 32 32 31 31 31 32 32 31 30 30 30 30 30 29 28 28 27 27 26 26 26 26 26 26 26 26 26 26 25 25 25 25 25 25 25 26
33 33 33 33 33 33 32 32 32 32 31 31 31 31 31 31 31 30 30 30 31 31 30 29 29 28 28 27 27 28 27 27 27 27 27 27 26 27 27 27 27 27 28 28
33 34 34 33 33 33 32 32 32 31 31 31 31 31 31 31 31 31 31 31 31 31 30 30 30 29 28 29 28 28 28 28 28 28 28 28 28 28 28 28 28 29 29 29
34 34 34 34 33 33 32 32 32 31 32 32 32 33 33 33 32 32 31 32 32 32 31 31 30 29 29 29 29 29 28 29 29 29 29 28 28 29 29 29 29 29 29 30
33 33 33 33 33 32 32 32 31 31 32 32 32 33 33 34 34 33 32 33 32 32 31 31 31 30 30 30 30 30 30 30 30 30 30 30 30 29 29 30 29 29 29 30
32 32 32 32 32 32 31 31 31 32 32 33 33 33 34 33 33 33 33 33 33 33 32 32 32 32 32 32 32 32 32 31 31 31 31 31 31 31 30 29 29 29 30 30
30 30 30 30 30 30 30 30 30 31 31 32 33 33 34 34 33 33 33 34 34 34 34 34 34 34 34 33 33 33 33 33 33 32 32 32 31 31 31 30 31 31 31 31
29 29 29 29 29 29 28 29 29 29 30 31 31 32 33 33 33 34 34 34 34 35 35 35 35 34 34 34 34 34 34 34 33 33 33 33 32 32 32 32 32 32 32 32
28 29 29 29 29 29 29 29 29 29 30 30 30 31 32 33 33 33 33 33 33 34 34 34 34 34 34 34 34 34 34 34 34 34 34 34 33 33 33 33 33 33 33 33
29 30 30 30 29 29 29 29 29 30 30 30 30 30 31 32 32 32 32 32 32 32 33 33 33 33 34 34 35 34 34 34 35 35 35 35 34 34 34 34 33 34 34 34
29 29 29 29 29 29 30 30 30 30 30 30 30 30 31 31 31 31 31 30 31 31 32 32 33 34 34 35 35 34 35 35 36 36 36 35 35 35 35 35 34 34 34 34
28 28 28 28 29 30 30 30 31 31 30 30 30 30 31 31 31 32 32 31 31 32 32 32 33 34 35 36 35 36 36 36 36 36 36 36 35 35 35 35 35 35 35 34
28 28 28 28 28 29 29 30 30 30 30 30 30 31 31 31 32 32 32 32 32 32 33 33 34 35 35 36 36 36 36 35 35 36 36 36 35 35 35 35 36 36 36 36
27 27 28 28 28 28 28 29 29 30 30 30 30 31 31 32 32 32 32 33 33 33 33 33 34 35 35 35 35 36 36 35 35 36 36 35 35 35 35 36 36 36 36 36
28 28 29 29 29 29 28 29 29 29 29 29 30 31 32 32 32 33 33 33 33 33 33 33 34 34 34 34 34 34 35 35 35 35 35 35 35 36 36 36 36 36 36 36
Wind_Direction
253 257 259 261 259 258 259 261 261 262 263 266 269 274 277 280 282 283 283 282 283 285 288 289 293 295 296 293 291 291 290 285 286 281 278 278 277 280 285 288 285 283 287 286
254 255 256 258 259 260 259 259 260 262 263 266 269 272 274 276 277 278 279 279 280 281 283 285 286 289 291 288 286 285 286 284 283 278 277 277 276 278 281 285 282 281 283 286
256 257 259 261 261 262 261 259 260 263 265 266 269 271 272 272 273 274 275 276 277 279 280 282 283 287 290 286 284 283 283 284 279 277 275 274 277 280 280 277 277 280 281 283
257 258 259 263 265 264 263 261 260 262 264 265 266 267 269 270 271 272 273 273 273 274 276 279 281 283 285 282 281 280 280 279 277 277 274 276 276 278 278 275 274 278 281 282
257 259 261 261 264 264 265 264 262 261 263 263 264 265 267 269 270 270 270 270 270 272 275 277 279 280 282 279 279 278 278 278 274 275 275 275 277 277 277 274 275 276 279 283
256 259 262 263 265 266 265 265 264 263 263 264 264 264 265 266 267 268 268 269 270 271 273 275 275 277 277 278 278 277 276 277 275 273 273 274 275 276 275 276 275 277 280 282
255 258 262 263 265 264 263 266 267 266 265 264 264 264 263 263 263 266 267 268 269 270 271 273 274 274 274 274 275 276 276 275 274 273 272 273 275 277 276 275 274 277 279 281
256 258 261 263 265 263 263 265 266 266 266 265 264 263 261 261 261 263 265 267 268 268 269 271 272 273 272 272 272 272 273 273 272 271 271 271 273 275 276 275 275 277 279 281
256 259 262 263 263 264 264 265 267 267 266 266 266 264 261 260 260 262 265 266 266 266 268 270 272 272 271 271 272 271 270 269 270 270 270 271 272 274 274 274 276 276 276 277
256 259 261 262 262 263 262 264 265 266 265 265 265 265 264 263 263 263 263 264 263 264 265 268 269 270 271 271 271 271 269 269 270 270 270 271 271 271 272 273 274 274 276 277
256 259 260 260 260 261 262 264 265 264 264 264 264 264 263 264 264 264 262 261 261 262 263 265 267 266 267 270 271 271 270 269 269 269 269 270 271 271 271 274 275 274 274 277
256 258 259 260 260 260 262 264 264 263 262 261 262 263 263 263 263 263 262 261 260 261 262 263 264 264 265 267 269 270 270 268 268 269 270 271 271 271 271 273 275 276 275 277
257 258 259 261 261 262 262 262 261 261 261 260 261 262 263 262 261 261 260 260 261 261 262 261 262 263 263 264 267 268 268 268 268 269 270 271 270 270 271 272 273 275 276 278
258 258 259 260 261 262 262 262 261 260 260 261 262 262 261 260 258 258 259 261 263 264 263 261 261 262 262 264 265 266 266 267 268 269 269 270 269 270 271 272 273 275 277 278
258 259 259 260 261 261 261 262 261 260 260 261 261 261 260 259 258 258 259 261 264 265 265 262 262 262 262 264 265 265 265 266 267 268 269 269 269 270 272 273 275 277 279 280
259 259 259 259 260 260 261 262 261 261 261 262 261 260 260 260 260 260 260 261 263 263 263 262 262 262 262 263 264 266 267 268 267 267 268 269 270 271 272 274 276 278 279 280
258 258 259 259 260 260 260 260 261 261 261 262 262 262 261 260 260 261 262 262 263 262 261 260 261 262 262 263 264 266 268 269 268 268 268 268 269 271 272 274 276 278 280 281
259 260 261 261 260 259 260 261 261 261 262 263 262 262 261 260 260 261 261 262 263 262 260 260 261 262 262 263 264 266 268 268 269 269 269 269 270 271 272 274 276 278 280 282
259 260 262 263 262 262 262 262 262 262 264 264 263 263 262 260 259 261 261 262 263 262 261 260 260 260 262 264 264 265 267 268 268 268 268 269 270 271 273 275 277 278 279 281
260 261 262 263 264 264 263 263 264 264 265 265 264 263 261 259 259 260 261 262 263 262 261 260 259 260 261 262 264 265 266 267 267 267 268 269 271 272 273 275 277 277 278 280
260 261 262 263 264 263 263 263 263 264 265 265 265 264 262 260 260 261 262 262 262 262 261 260 260 261 261 261 263 265 266 266 266 267 267 268 270 271 273 275 276 277 279 280
262 263 263 263 264 263 263 263 264 265 265 264 264 264 263 261 261 261 262 263 263 262 261 260 260 261 262 262 263 264 265 266 267 268 267 267 269 270 272 274 276 277 278 279
262 263 262 262 262 263 262 263 265 266 266 265 265 265 264 263 262 261 261 263 263 264 263 262 261 261 262 263 263 264 266 267 268 268 267 268 269 270 272 273 275 276 277 279
262 263 263 262 264 264 264 264 265 266 266 266 266 266 266 264 263 263 262 263 263 263 263 263 263 263 263 264 265 266 268 268 268 267 267 268 269 270 271 272 274 276 278 279
263 264 264 263 265 265 266 267 267 267 267 267 266 266 267 266 265 264 263 263 263 263 263 263 264 264 265 266 265 266 267 267 268 268 268 268 269 270 271 273 274 276 278 279
263 263 263 264 265 267 267 267 268 268 269 268 268 267 267 266 264 264 264 264 264 264 264 265 265 264 266 266 265 265 266 267 268 268 268 267 267 268 270 272 275 277 279 280
264 263 264 264 265 267 268 269 269 269 270 269 269 268 267 267 266 266 266 266 266 266 266 266 266 265 265 266 266 266 266 267 268 268 268 268 268 269 271 273 275 276 279 281
Height
5824 5825 5826 5827 5828 5830 5831 5832 5833 5834 5834 5834 5833 5833 5833 5833 5832 5832 5832 5832 5832 5832 5832 5831 5831 5830 5830 5830 5829 5829 5829 5829 5828 5828 5828 5828 5828 5829 5828 5828 5828 5828 5829 5829
5819 5820 5821 5822 5823 5824 5826 5827 5828 5829 5830 5829 5829 5829 5829 5829 5829 5829 5829 5829 5829 5829 5829 5829 5828 5828 5827 5827 5827 5827 5827 5826 5826 5826 5826 5826 5826 5826 5826 5826 5826 5826 5826 5826
5813 5814 5815 5816 5818 5819 5820 5821 5823 5823 5825 5825 5825 5825 5825 5825 5825 5825 5825 5825 5825 5825 5825 5825 5825 5825 5824 5824 5824 5824 5824 5824 5824 5824 5824 5824 5824 5824 5824 5824 5824 5824 5824 5824
5806 5809 5809 5813 5812 5813 5814 5816 5817 5817 5818 5819 5820 5820 5820 5820 5821 5821 5821 5821 5821 5822 5822 5822 5821 5821 5821 5821 5821 5821 5821 5821 5821 5821 5821 5821 5821 5821 5821 5821 5821 5821 5821 5821
5800 5801 5802 5806 5806 5807 5808 5809 5810 5811 5812 5813 5814 5814 5815 5815 5816 5816 5817 5817 5817 5817 5817 5817 5817 5817 5817 5817 5817 5817 5818 5818 5818 5818 5818 5818 5818 5818 5818 5818 5818 5818 5818 5818
5793 5794 5796 5799 5800 5800 5802 5802 5804 5805 5806 5806 5807 5808 5810 5810 5810 5811 5811 5812 5812 5812 5813 5813 5813 5813 5813 5813 5813 5813 5814 5813 5814 5814 5814 5814 5814 5814 5814 5814 5814 5814 5814 5814
5786 5787 5789 5792 5792 5794 5796 5796 5796 5797 5798 5799 5800 5802 5803 5804 5804 5805 5806 5806 5807 5807 5808 5808 5808 5808 5808 5809 5809 5809 5809 5809 5809 5810 5810 5810 5810 5810 5810 5810 5810 5810 5810 5810
5779 5780 5784 5785 5785 5787 5787 5788 5788 5789 5790 5792 5793 5794 5796 5797 5798 5799 5800 5800 5801 5802 5802 5802 5803 5803 5803 5804 5804 5804 5804 5804 5804 5805 5805 5805 5805 5805 5805 5805 5805 5805 5805 5805
5773 5775 5776 5777 5778 5779 5779 5780 5781 5782 5783 5784 5786 5787 5788 5790 5791 5792 5793 5794 5794 5795 5796 5797 5797 5797 5798 5798 5798 5798 5799 5799 5799 5799 5800 5800 5800 5800 5800 5800 5800 5800 5800 5800
5764 5765 5767 5768 5769 5770 5771 5772 5773 5774 5776 5777 5778 5780 5781 5782 5783 5784 5786 5787 5788 5788 5789 5790 5790 5791 5791 5791 5792 5792 5792 5793 5793 5793 5794 5794 5794 5795 5795 5795 5794 5794 5794 5794
5755 5757 5758 5759 5760 5761 5762 5763 5764 5766 5767 5769 5770 5771 5773 5774 5775 5776 5777 5779 5780 5781 5782 5783 5783 5784 5784 5785 5785 5785 5786 5786 5787 5787 5787 5788 5788 5788 5788 5788 5788 5788 5787 5787
5746 5748 5749 5750 5751 5753 5753 5755 5756 5757 5758 5760 5761 5762 5763 5765 5766 5767 5768 5770 5771 5772 5773 5774 5775 5776 5777 5777 5777 5778 5778 5779 5779 5780 5780 5781 5781 5781 5781 5781 5781 5780 5780 5780
5737 5738 5739 5740 5742 5743 5744 5745 5746 5747 5748 5750 5751 5753 5754 5755 5757 5758 5759 5760 5761 5763 5764 5766 5767 5768 5768 5769 5769 5770 5771 5771 5772 5772 5773 5773 5773 5773 5774 5774 5773 5773 5772 5772
5727 5728 5730 5731 5732 5733 5734 5735 5736 5737 5739 5740 5742 5743 5744 5745 5747 5749 5750 5751 5752 5753 5755 5756 5758 5759 5759 5760 5761 5761 5762 5763 5763 5764 5764 5764 5765 5765 5765 5765 5765 5765 5764 5763
5717 5718 5720 5721 5722 5723 5724 5725 5727 5728 5730 5731 5732 5733 5734 5736 5738 5740 5741 5742 5743 5744 5745 5747 5748 5750 5750 5751 5752 5752 5753 5754 5754 5755 5755 5755 5756 5756 5756 5756 5756 5756 5755 5755
5707 5708 5710 5711 5713 5714 5715 5716 5717 5719 5720 5722 5723 5724 5725 5726 5728 5730 5732 5733 5734 5735 5736 5737 5738 5740 5741 5742 5743 5744 5744 5745 5745 5746 5746 5746 5747 5747 5747 5747 5747 5747 5746 5746
5697 5699 5700 5702 5703 5704 5705 5707 5708 5709 5710 5712 5713 5714 5715 5716 5718 5720 5721 5723 5724 5725 5726 5727 5729 5730 5731 5732 5733 5734 5735 5735 5736 5736 5737 5737 5738 5738 5738 5738 5738 5737 5737 5736
5688 5689 5691 5692 5693 5695 5696 5697 5698 5700 5701 5702 5703 5704 5705 5706 5708 5710 5711 5712 5714 5715 5716 5718 5719 5720 5721 5722 5723 5724 5725 5726 5726 5727 5727 5728 5728 5728 5729 5728 5728 5728 5727 5726
5679 5680 5682 5683 5684 5685 5687 5688 5689 5690 5691 5692 5692 5693 5695 5696 5698 5699 5701 5702 5703 5705 5706 5707 5708 5710 5711 5712 5713 5714 5715 5716 5716 5717 5717 5718 5718 5718 5718 5718 5718 5718 5717 5716
5670 5672 5673 5674 5675 5677 5678 5679 5679 5680 5681 5682 5682 5683 5684 5686 5687 5688 5689 5691 5692 5694 5695 5696 5697 5699 5701 5702 5702 5703 5704 5705 5706 5706 5707 5707 5708 5708 5708 5708 5708 5707 5706 5705
5662 5663 5664 5665 5666 5667 5668 5669 5670 5671 5672 5672 5673 5673 5674 5675 5677 5677 5678 5680 5681 5682 5683 5684 5686 5688 5689 5690 5691 5692 5693 5694 5694 5695 5696 5696 5697 5697 5697 5697 5697 5696 5695 5694
5653 5654 5655 5656 5657 5658 5659 5660 5661 5661 5662 5662 5663 5663 5664 5665 5666 5667 5668 5669 5671 5671 5672 5674 5675 5677 5678 5679 5680 5681 5682 5682 5683 5684 5684 5685 5685 5686 5686 5685 5685 5685 5684 5683
5645 5646 5646 5647 5648 5649 5650 5651 5651 5652 5652 5653 5653 5654 5654 5655 5656 5657 5658 5659 5660 5660 5662 5663 5664 5665 5666 5667 5668 5669 5670 5670 5671 5672 5672 5672 5673 5673 5674 5674 5673 5673 5672 5671
5636 5637 5638 5639 5639 5640 5641 5641 5641 5642 5642 5643 5643 5644 5644 5645 5646 5647 5648 5648 5649 5650 5651 5652 5653 5653 5654 5655 5656 5657 5658 5658 5659 5660 5660 5661 5661 5661 5661 5662 5661 5661 5660 5659
5628 5629 5629 5630 5630 5631 5631 5631 5632 5632 5632 5633 5633 5634 5634 5635 5635 5636 5637 5638 5638 5639 5640 5641 5641 5642 5642 5643 5644 5645 5646 5646 5647 5647 5648 5648 5649 5649 5649 5650 5649 5649 5648 5647
5620 5620 5621 5621 5622 5622 5622 5622 5622 5623 5623 5623 5623 5623 5624 5624 5625 5625 5626 5627 5627 5628 5628 5629 5629 5630 5630 5631 5632 5633 5633 5634 5634 5635 5635 5636 5637 5637 5637 5638 5637 5637 5636 5635
5611 5611 5612 5612 5613 5613 5613 5613 5613 5613 5613 5613 5613 5613 5613 5614 5614 5615 5615 5616 5616 5617 5617 5618 5618 5619 5619 5620 5620 5621 5622 5622 5622 5622 5623 5624 5624 5625 5625 5625 5625 5624 5623 5622